Regional Weather Roundup
Issued by NWS

Home | Current Version | Previous Version | Graphics & Text | Print | Product List | Glossary On
Versions: 1 2 3 4 5 6 7 8 9 10 11 12 13 14 15 16 17 18 19 20 21 22 23 24 25 26 27 28 29 30 31 32 33 34 35 36 37 38 39 40 41 42 43 44 45 46 47 48 49 50
000
ASUS43 KLSX 251207
RWRMO

WEATHER SUMMARY FOR MISSOURI
NATIONAL WEATHER SERVICE SPRINGFIELD MO
700 AM CDT FRI JUL 25 2014

NOTE: "FAIR" INDICATES FEW OR NO CLOUDS BELOW 12,000 FEET WITH NO
       SIGNIFICANT WEATHER AND/OR OBSTRUCTIONS TO VISIBILITY.
       CURRENT SKY AND/OR WEATHER CONDITIONS ARE NOT AVAILABLE FOR
       CHILLICOTHE AND FARMINGTON.

MOZ001>031-035>038-043-044-053-054-251300-
...NORTHERN AND WESTERN MISSOURI...

CITY           SKY/WX    TMP DP  RH WIND       PRES   REMARKS
KANSAS CTY INT CLOUDY    74  66  76 S13       29.91R
6HR MIN TEMP:  70; 6HR MAX TEMP:  74;

KANSAS C DTWN  MOCLDY    74  65  73 S9G23     29.91R
6HR MIN TEMP:  73; 6HR MAX TEMP:  75;

LEE`S SUMMIT   MOCLDY    70  62  76 SE7       29.95R
6HR MIN TEMP:  70; 6HR MAX TEMP:  72;

ST JOSEPH      CLOUDY    72  64  76 S12       29.87F
6HR MIN TEMP:  69; 6HR MAX TEMP:  72;

CHILLICOTHE      N/A     68  56  65 S9        29.94S
6HR MIN TEMP:  66; 6HR MAX TEMP:  69;

KIRKSVILLE     CLOUDY    64  55  72 E10       29.98S
6HR MIN TEMP:  63; 6HR MAX TEMP:  65;


$$
MOZ066>068-077>081-088>096-101>105-251300-
...SOUTHWEST MISSOURI...

CITY           SKY/WX    TMP DP  RH WIND       PRES   REMARKS
SPRINGFIELD    PTCLDY    66  59  78 S13       30.02R
6HR MIN TEMP:  66; 6HR MAX TEMP:  69;

JOPLIN         PTCLDY    72  68  87 S9        29.99R
6HR MIN TEMP:  69; 6HR MAX TEMP:  72;


$$
MOZ032>034-039>042-045>050-055>058-069>072-251300-
...CENTRAL MISSOURI...

CITY           SKY/WX    TMP DP  RH WIND       PRES   REMARKS
COLUMBIA       CLOUDY    64  56  75 S8        30.02R
6HR MIN TEMP:  62; 6HR MAX TEMP:  64;

JEFFERSON CITY MOCLDY    66  56  70 CALM      30.03R
6HR MIN TEMP:  61; 6HR MAX TEMP:  66;

ROLLA            N/A     65  56  72 S14       30.03R
6HR MIN TEMP:  62; 6HR MAX TEMP:  66;

SEDALIA        MOCLDY    69  58  67 S8        29.99R
6HR MIN TEMP:  64; 6HR MAX TEMP:  69;

WHITEMAN AFB   MOCLDY    68  51  53 S8        29.96R
OSAGE BEACH    PTCLDY    64  55  72 S8        30.01S

$$
MOZ051-052-059>065-251300-
...EAST CENTRAL MISSOURI...

CITY           SKY/WX    TMP DP  RH WIND       PRES   REMARKS
ST LOUIS INTL  CLOUDY    69  57  65 S7        30.05R
6HR MIN TEMP:  64; 6HR MAX TEMP:  70;

SPIRIT OF STL  CLOUDY    63  57  81 S3        30.04R
6HR MIN TEMP:  56; 6HR MAX TEMP:  63;

ST CHARLES     CLOUDY    62  59  90 CALM      30.04R
6HR MIN TEMP:  58; 6HR MAX TEMP:  64;


$$
MOZ072>076-082>087-097>100-106>115-251300-
...SOUTH CENTRAL AND SOUTHEAST MISSOURI...

CITY           SKY/WX    TMP DP  RH WIND       PRES   REMARKS
CAPE GIRARDEAU PTSUNNY   60  59  96 CALM      30.07R FOG
6HR MIN TEMP:  58; 6HR MAX TEMP:  62;

FARMINGTON     PTSUNNY   57  55  94 CALM      30.09R
6HR MIN TEMP:  55; 6HR MAX TEMP:  57;

POPLAR BLUFF   MOSUNNY   60  57  89 CALM      30.06R
6HR MIN TEMP:  58; 6HR MAX TEMP:  62;

WEST PLAINS    MOCLDY    64  56  75 S5        30.09R
6HR MIN TEMP:  61; 6HR MAX TEMP:  65;


$$



USA.gov is the U.S. government's official web portal to all federal, state and local government web resources and services.